Regional Weather Roundup
Issued by NWS

Home | Current Version | Previous Version | Graphics & Text | Print | Product List | Glossary On
Versions: 1 2 3 4 5 6 7 8 9 10 11 12 13 14 15 16 17 18 19 20 21 22 23 24 25 26 27 28 29 30 31 32 33 34 35 36 37 38 39 40 41 42 43 44 45 46 47 48 49 50
999
ASUS44 KLIX 161710
RWRLA
LOUISIANA WEATHER ROUNDUP
NATIONAL WEATHER SERVICE NEW ORLEANS LA
1200 PM CDT WED APR 16 2014

NOTE: "FAIR" INDICATES FEW OR NO CLOUDS BELOW 12,000 FEET WITH NO
      SIGNIFICANT WEATHER AND/OR OBSTRUCTIONS TO VISIBILITY.
      SKY/WX - SKY CONDITION AND SIGNIFICANT WEATHER.
      TMP - AIR TEMPERATURE.    DP   - DEWPOINT TEMPERATURE.
      RH  - RELATIVE HUMIDITY.  PRES - PRESSURE.
      HX  - HEAT INDEX.         WCI  - WIND CHILL INDEX.

*  THESE STATIONS ARE NOT NWS OR FAA STATIONS AND ARE NOT UNDER
   NWS QUALITY CONTROL.

LAZ040-048-061>063-065-066-069-161800-
SOUTHEAST LOUISIANA

CITY           SKY/WX    TMP DP  RH WIND       PRES   REMARKS
N.O. AUDUBON     N/A     61  37  41 MISG        N/A
N.O. INTL ARPT MOSUNNY   59  40  49 SE7       30.23F
N.O. LAKEFRONT SUNNY     57  41  55 E12       30.24F
N.O. DOWNTOWN* PTSUNNY   59  37  44 S7        30.23F
SLIDELL        SUNNY     58  32  37 MISG      30.23F
BATON ROUGE    SUNNY     58  34  40 VRB5      30.24F
BOOTHVILLE     MOSUNNY   59  45  59 NE9       30.22F
BELLE CHASSE   MOSUNNY   60  40  47 E12       30.22F
BOGALUSA*        N/A     57  30  35 S3        30.26F
GALLIANO*      MOSUNNY   62  43  49 N6        30.22F
NEW ROADS*     FAIR      56  31  38 SE5       30.25F
GONZALES*      FAIR      58  36  43 SE5       30.23F
HAMMOND*       SUNNY     59  30  33 S3        30.26F
HOUMA*         MOSUNNY   63  41  45 NE7       30.22F
PORT FOURCHON* PTSUNNY   61  45  55 NE9G16    30.22F

$$

LAZ041-044-053-054-161800-
SOUTHWEST LOUISIANA

CITY           SKY/WX    TMP DP  RH WIND       PRES   REMARKS
LAKE CHARLES   SUNNY     58  40  51 SE12      30.23F
LAFAYETTE      SUNNY     57  39  51 S9        30.24S
PATTERSON      SUNNY     61  41  48 SE13      30.25F
SALT POINT       N/A     63  43  48 VRB7      30.22F
NEW IBERIA     SUNNY     59  39  47 SE7       30.24F
CHENAULT AIRPK SUNNY     59  37  44 S8        30.25S

$$

LAZ027-028-161800-
CENTRAL LOUISIANA

CITY           SKY/WX    TMP DP  RH WIND       PRES   REMARKS
FORT POLK      SUNNY     56  32  40 SW8       30.22F
ALEXANDRIA INT SUNNY     57  33  40 SE7       30.23F
ALEXANDRIA     SUNNY     58  29  33 SW6       30.24F

$$

LAZ001-002-161800-
NORTHWEST LOUISIANA

CITY           SKY/WX    TMP DP  RH WIND       PRES   REMARKS
SHREVEPORT     MOSUNNY   58  30  34 S9        30.22F
BARKSDALE AFB  SUNNY     56  30  37 S9        30.22F
DTN SHREVEPORT SUNNY     55  32  41 SE9G17    30.23F

$$

LAZ014-016-161800-
NORTHEAST LOUISIANA

CITY           SKY/WX    TMP DP  RH WIND       PRES   REMARKS
MONROE         SUNNY     55  33  43 S6        30.26F
TALLULAH       SUNNY     53  32  44 VRB3      30.26F

$$




USA.gov is the U.S. government's official web portal to all federal, state and local government web resources and services.